| time (UTC) | temp F | wind direction | speed knots | gust knots | rain 1hr in | rain 24hr in | rain mn in | humidity % | barometer mb |
| 20260903060046 | 80 | 227 | 1.7 | 2.6 | 0.00 | 0.00 | 0.00 | 78 | 1016.0 |
| 20260903055544 | 80 | 225 | 0.9 | 3.5 | 0.00 | 0.00 | 0.00 | 78 | 1016.0 |
| 20260903055043 | 80 | 225 | 0.9 | 3.5 | 0.00 | 0.00 | 0.00 | 78 | 1015.8 |
| 20260903054544 | 80 | 218 | 0.9 | 4.3 | 0.00 | 0.00 | 0.00 | 78 | 1015.8 |
| 20260903054045 | 80 | 219 | 1.7 | 4.3 | 0.00 | 0.00 | 0.00 | 77 | 1015.8 |
| 20260903053543 | 80 | 211 | 1.7 | 4.3 | 0.00 | 0.00 | 0.00 | 77 | 1015.8 |
| 20260903053042 | 80 | 240 | 1.7 | 4.3 | 0.00 | 0.00 | 0.00 | 77 | 1015.8 |
| 20260903052542 | 80 | 215 | 1.7 | 4.3 | 0.00 | 0.00 | 0.00 | 77 | 1015.7 |
| 20260903052142 | 80 | 224 | 1.7 | 4.3 | 0.00 | 0.00 | 0.00 | 77 | 1015.6 |
| 20260903051541 | 80 | 233 | 1.7 | 3.5 | 0.00 | 0.00 | 0.00 | 77 | 1015.6 |
| 20260903051041 | 80 | 233 | 1.7 | 4.3 | 0.00 | 0.00 | 0.00 | 78 | 1015.6 |
| 20260903050542 | 80 | 229 | 1.7 | 4.3 | 0.00 | 0.00 | 0.00 | 78 | 1015.6 |
| 20260903050041 | 80 | 230 | 1.7 | 3.5 | 0.00 | 0.00 | 0.00 | 78 | 1015.5 |
| 20260903045540 | 80 | 229 | 1.7 | 2.6 | 0.00 | 0.00 | 0.00 | 78 | 1015.7 |
| 20260903045039 | 80 | 229 | 0.9 | 2.6 | 0.00 | 0.00 | 0.00 | 78 | 1015.6 |
| 20260903044549 | 80 | 228 | 0.9 | 3.5 | 0.00 | 0.00 | 0.00 | 78 | 1015.6 |
| 20260903044039 | 80 | 228 | 0.9 | 3.5 | 0.00 | 0.00 | 0.00 | 78 | 1015.6 |
| 20260903043539 | 80 | 229 | 0.9 | 3.5 | 0.00 | 0.00 | 0.00 | 78 | 1015.6 |
| 20260903043037 | 80 | 229 | 1.7 | 3.5 | 0.00 | 0.00 | 0.00 | 78 | 1015.6 |
| 20260903042537 | 80 | 229 | 0.9 | 4.3 | 0.00 | 0.00 | 0.00 | 78 | 1015.6 |
| 20260903042040 | 80 | 242 | 1.7 | 3.5 | 0.00 | 0.00 | 0.00 | 78 | 1015.6 |
| 20260903041538 | 81 | 249 | 0.9 | 2.6 | 0.00 | 0.00 | 0.00 | 78 | 1015.6 |
| 20260903041036 | 81 | 249 | 0.0 | 1.7 | 0.00 | 0.00 | 0.00 | 78 | 1015.7 |
| 20260903040538 | 81 | 249 | 0.0 | 1.7 | 0.00 | 0.00 | 0.00 | 78 | 1015.7 |
| 20260903040035 | 81 | 249 | 0.0 | 1.7 | 0.00 | 0.00 | 0.00 | 78 | 1015.7 |
| 20260903035536 | 80 | 249 | 0.0 | 2.6 | 0.00 | 0.00 | 0.00 | 78 | 1015.7 |
| 20260903035034 | 80 | 249 | 1.7 | 3.5 | 0.00 | 0.00 | 0.00 | 78 | 1015.7 |
| 20260903034534 | 80 | 249 | 1.7 | 3.5 | 0.00 | 0.00 | 0.00 | 79 | 1015.7 |
| 20260903034033 | 80 | 258 | 1.7 | 3.5 | 0.00 | 0.00 | 0.00 | 79 | 1015.7 |
| 20260903033533 | 80 | 259 | 0.9 | 3.5 | 0.00 | 0.00 | 0.00 | 79 | 1015.7 |
| 20260903033034 | 80 | 260 | 0.9 | 2.6 | 0.00 | 0.00 | 0.00 | 79 | 1015.8 |
| 20260903032533 | 80 | 260 | 0.0 | 1.7 | 0.00 | 0.00 | 0.00 | 79 | 1015.8 |
| 20260903032032 | 80 | 260 | 0.0 | 0.9 | 0.00 | 0.00 | 0.00 | 78 | 1015.8 |
| 20260903031532 | 80 | 260 | 0.0 | 0.9 | 0.00 | 0.00 | 0.00 | 78 | 1015.8 |
| 20260903031032 | 80 | 260 | 0.0 | 0.0 | 0.00 | 0.00 | 0.00 | 78 | 1015.8 |
| 20260903030535 | 81 | 260 | 0.0 | 0.0 | 0.00 | 0.00 | 0.00 | 78 | 1015.9 |
| 20260903030034 | 81 | 260 | 0.0 | 0.0 | 0.00 | 0.00 | 0.00 | 78 | 1015.8 |
| 20260903025534 | 81 | 260 | 0.0 | 0.0 | 0.00 | 0.00 | 0.00 | 78 | 1015.8 |
| 20260903025032 | 81 | 260 | 0.0 | 0.0 | 0.00 | 0.00 | 0.00 | 77 | 1015.8 |
| 20260903024532 | 81 | 260 | 0.0 | 0.0 | 0.00 | 0.00 | 0.00 | 77 | 1015.8 |
| 20260903024034 | 81 | 260 | 0.0 | 0.0 | 0.00 | 0.00 | 0.00 | 77 | 1015.8 |
| 20260903023531 | 81 | 260 | 0.0 | 0.0 | 0.00 | 0.00 | 0.00 | 77 | 1015.8 |
| 20260903023034 | 81 | 260 | 0.0 | 0.0 | 0.00 | 0.00 | 0.00 | 77 | 1015.8 |
| 20260903022530 | 82 | 260 | 0.0 | 0.0 | 0.00 | 0.00 | 0.00 | 77 | 1015.8 |
| 20260903022031 | 82 | 260 | 0.0 | 0.9 | 0.00 | 0.00 | 0.00 | 76 | 1015.8 |
| 20260903021631 | 82 | 260 | 0.0 | 2.6 | 0.00 | 0.00 | 0.00 | 76 | 1015.8 |
| 20260903021030 | 82 | 260 | 0.9 | 2.6 | 0.00 | 0.00 | 0.00 | 76 | 1015.8 |
| 20260903020530 | 82 | 261 | 0.9 | 2.6 | 0.00 | 0.00 | 0.00 | 76 | 1015.8 |
| 20260903020038 | 82 | 261 | 0.9 | 1.7 | 0.00 | 0.00 | 0.00 | 76 | 1015.8 |
| 20260903015531 | 83 | 261 | 0.9 | 1.7 | 0.00 | 0.00 | 0.00 | 75 | 1015.8 |
| 20260903015029 | 83 | 261 | 0.0 | 0.0 | 0.00 | 0.00 | 0.00 | 73 | 1015.8 |
| 20260903014536 | 84 | 261 | 0.0 | 0.0 | 0.00 | 0.00 | 0.00 | 72 | 1015.8 |
| 20260903014031 | 84 | 261 | 0.0 | 0.0 | 0.00 | 0.00 | 0.00 | 71 | 1015.8 |
| 20260903013528 | 84 | 261 | 0.0 | 0.0 | 0.00 | 0.00 | 0.00 | 71 | 1015.7 |
| 20260903013029 | 84 | 261 | 0.0 | 1.7 | 0.00 | 0.00 | 0.00 | 71 | 1015.8 |
| 20260903012527 | 84 | 261 | 0.0 | 1.7 | 0.00 | 0.00 | 0.00 | 71 | 1015.7 |
| 20260903012027 | 85 | 261 | 0.9 | 2.6 | 0.00 | 0.00 | 0.00 | 71 | 1015.7 |
| 20260903011527 | 85 | 261 | 0.9 | 2.6 | 0.00 | 0.00 | 0.00 | 70 | 1015.5 |
| 20260903011030 | 85 | 261 | 0.9 | 2.6 | 0.00 | 0.00 | 0.00 | 70 | 1015.4 |
| 20260903010527 | 85 | 261 | 1.7 | 2.6 | 0.00 | 0.00 | 0.00 | 69 | 1015.4 |
| 20260903010031 | 86 | 261 | 1.7 | 2.6 | 0.00 | 0.00 | 0.00 | 69 | 1015.3 |
| 20260903005527 | 86 | 261 | 0.9 | 2.6 | 0.00 | 0.00 | 0.00 | 68 | 1015.3 |
| 20260903005027 | 86 | 261 | 0.9 | 2.6 | 0.00 | 0.00 | 0.00 | 67 | 1015.3 |
| 20260903004526 | 86 | 261 | 0.9 | 2.6 | 0.00 | 0.00 | 0.00 | 67 | 1015.3 |
| 20260903004026 | 87 | 261 | 0.0 | 1.7 | 0.00 | 0.00 | 0.00 | 66 | 1015.3 |
| 20260903003526 | 87 | 261 | 0.0 | 1.7 | 0.00 | 0.00 | 0.00 | 66 | 1015.3 |
| 20260903003025 | 87 | 261 | 0.0 | 1.7 | 0.00 | 0.00 | 0.00 | 65 | 1015.3 |
| 20260903002525 | 88 | 261 | 0.9 | 2.6 | 0.00 | 0.00 | 0.00 | 65 | 1015.2 |
| 20260903002027 | 88 | 261 | 0.9 | 2.6 | 0.00 | 0.00 | 0.00 | 65 | 1015.2 |
| 20260903001524 | 88 | 261 | 0.9 | 2.6 | 0.00 | 0.00 | 0.00 | 64 | 1015.3 |
| 20260903001026 | 89 | 261 | 0.9 | 2.6 | 0.00 | 0.00 | 0.00 | 64 | 1015.4 |
| 20260903000525 | 89 | 261 | 0.0 | 0.0 | 0.00 | 0.00 | 0.00 | 63 | 1015.4 |
| 20260903000024 | 90 | 261 | 0.0 | 0.0 | 0.00 | 0.00 | 0.00 | 62 | 1015.4 |
| 20260902235523 | 90 | 261 | 0.0 | 0.9 | 0.00 | 0.00 | 0.00 | 62 | 1015.4 |
| 20260902235022 | 90 | 261 | 0.0 | 2.6 | 0.00 | 0.00 | 0.00 | 62 | 1015.4 |
| 20260902234523 | 91 | 261 | 0.9 | 2.6 | 0.00 | 0.00 | 0.00 | 62 | 1015.4 |
| 20260902234024 | 91 | 261 | 1.7 | 5.2 | 0.00 | 0.00 | 0.00 | 61 | 1015.4 |
| 20260902233522 | 91 | 262 | 0.9 | 5.2 | 0.00 | 0.00 | 0.00 | 61 | 1015.4 |
| 20260902233022 | 91 | 261 | 1.7 | 2.6 | 0.00 | 0.00 | 0.00 | 60 | 1015.3 |
| 20260902232521 | 92 | 262 | 1.7 | 3.5 | 0.00 | 0.00 | 0.00 | 60 | 1015.4 |
| 20260902232021 | 92 | 262 | 1.7 | 5.2 | 0.00 | 0.00 | 0.00 | 59 | 1015.4 |
| 20260902231536 | 92 | 262 | 2.6 | 6.1 | 0.00 | 0.00 | 0.00 | 59 | 1015.3 |
| 20260902231024 | 92 | 252 | 2.6 | 7.0 | 0.00 | 0.00 | 0.00 | 59 | 1015.3 |
| 20260902230526 | 92 | 256 | 2.6 | 7.0 | 0.00 | 0.00 | 0.00 | 58 | 1015.4 |
| 20260902230021 | 93 | 213 | 3.5 | 7.0 | 0.00 | 0.00 | 0.00 | 57 | 1015.4 |
| 20260902225524 | 93 | 247 | 3.5 | 7.0 | 0.00 | 0.00 | 0.00 | 57 | 1015.4 |
| 20260902225024 | 93 | 264 | 3.5 | 7.0 | 0.00 | 0.00 | 0.00 | 56 | 1015.4 |
| 20260902224520 | 93 | 234 | 3.5 | 7.0 | 0.00 | 0.00 | 0.00 | 56 | 1015.3 |
| 20260902224024 | 93 | 257 | 4.3 | 7.8 | 0.00 | 0.00 | 0.00 | 56 | 1015.4 |
| 20260902223520 | 93 | 273 | 4.3 | 7.8 | 0.00 | 0.00 | 0.00 | 56 | 1015.4 |
| 20260902223033 | 93 | 267 | 4.3 | 8.7 | 0.00 | 0.00 | 0.00 | 56 | 1015.4 |
| 20260902222521 | 93 | 269 | 3.5 | 8.7 | 0.00 | 0.00 | 0.00 | 56 | 1015.5 |
| 20260902222024 | 94 | 260 | 5.2 | 8.7 | 0.00 | 0.00 | 0.00 | 56 | 1015.4 |
| 20260902221524 | 94 | 250 | 5.2 | 8.7 | 0.00 | 0.00 | 0.00 | 55 | 1015.4 |
| 20260902221018 | 94 | 221 | 5.2 | 8.7 | 0.00 | 0.00 | 0.00 | 55 | 1015.4 |
| 20260902220519 | 94 | 211 | 4.3 | 10.4 | 0.00 | 0.00 | 0.00 | 56 | 1015.5 |
| 20260902220018 | 94 | 234 | 3.5 | 9.6 | 0.00 | 0.00 | 0.00 | 55 | 1015.5 |
| 20260902215517 | 94 | 271 | 5.2 | 7.8 | 0.00 | 0.00 | 0.00 | 56 | 1015.5 |
| 20260902215019 | 94 | 273 | 2.6 | 10.4 | 0.00 | 0.00 | 0.00 | 56 | 1015.4 |
| 20260902214521 | 93 | 268 | 6.1 | 11.3 | 0.00 | 0.00 | 0.00 | 55 | 1015.5 |
| 20260902214017 | 93 | 258 | 7.0 | 11.3 | 0.00 | 0.00 | 0.00 | 56 | 1015.5 |
| 20260902213516 | 93 | 215 | 3.5 | 9.6 | 0.00 | 0.00 | 0.00 | 56 | 1015.5 |
| 20260902213016 | 94 | 230 | 4.3 | 11.3 | 0.00 | 0.00 | 0.00 | 56 | 1015.6 |
| 20260902212516 | 94 | 235 | 5.2 | 13.9 | 0.00 | 0.00 | 0.00 | 56 | 1015.5 |
| 20260902212016 | 94 | 248 | 5.2 | 13.9 | 0.00 | 0.00 | 0.00 | 55 | 1015.6 |
| 20260902211516 | 94 | 275 | 6.1 | 11.3 | 0.00 | 0.00 | 0.00 | 55 | 1015.5 |
| 20260902211014 | 94 | 252 | 2.6 | 7.8 | 0.00 | 0.00 | 0.00 | 55 | 1015.5 |
| 20260902210515 | 94 | 267 | 4.3 | 12.2 | 0.00 | 0.00 | 0.00 | 54 | 1015.6 |
| 20260902210015 | 95 | 248 | 7.8 | 12.2 | 0.00 | 0.00 | 0.00 | 53 | 1015.6 |
| 20260902205514 | 94 | 281 | 3.5 | 7.8 | 0.00 | 0.00 | 0.00 | 55 | 1015.5 |
| 20260902205014 | 95 | 257 | 5.2 | 12.2 | 0.00 | 0.00 | 0.00 | 53 | 1015.6 |
| 20260902204514 | 95 | 275 | 7.8 | 12.2 | 0.00 | 0.00 | 0.00 | 53 | 1015.6 |
| 20260902204014 | 95 | 228 | 3.5 | 11.3 | 0.00 | 0.00 | 0.00 | 54 | 1015.6 |
| 20260902203513 | 95 | 273 | 6.1 | 11.3 | 0.00 | 0.00 | 0.00 | 53 | 1015.6 |
| 20260902203014 | 95 | 227 | 6.1 | 11.3 | 0.00 | 0.00 | 0.00 | 54 | 1015.6 |
| 20260902202512 | 95 | 268 | 5.2 | 9.6 | 0.00 | 0.00 | 0.00 | 53 | 1015.7 |
| 20260902202011 | 95 | 272 | 5.2 | 10.4 | 0.00 | 0.00 | 0.00 | 54 | 1015.7 |
| 20260902201509 | 95 | 277 | 7.0 | 10.4 | 0.00 | 0.00 | 0.00 | 54 | 1015.7 |
| 20260902201008 | 94 | 298 | 6.1 | 8.7 | 0.00 | 0.00 | 0.00 | 53 | 1015.8 |
| 20260902200511 | 95 | 238 | 5.2 | 11.3 | 0.00 | 0.00 | 0.00 | 54 | 1016.0 |
| 20260902200010 | 95 | 254 | 6.1 | 11.3 | 0.00 | 0.00 | 0.00 | 53 | 1016.0 |
| 20260902195506 | 94 | 264 | 6.1 | 11.3 | 0.00 | 0.00 | 0.00 | 55 | 1016.0 |
| 20260902195005 | 94 | 252 | 6.1 | 10.4 | 0.00 | 0.00 | 0.00 | 55 | 1016.0 |
| 20260902194515 | 94 | 257 | 4.3 | 10.4 | 0.00 | 0.00 | 0.00 | 55 | 1016.2 |
| 20260902194005 | 94 | 279 | 5.2 | 8.7 | 0.00 | 0.00 | 0.00 | 58 | 1016.3 |
| 20260902193505 | 93 | 202 | 1.7 | 5.2 | 0.00 | 0.00 | 0.00 | 58 | 1016.3 |
| 20260902193004 | 93 | 206 | 1.7 | 5.2 | 0.00 | 0.00 | 0.00 | 59 | 1016.4 |
| 20260902192504 | 93 | 265 | 3.5 | 10.4 | 0.00 | 0.00 | 0.00 | 57 | 1016.6 |
| 20260902192005 | 94 | 240 | 5.2 | 11.3 | 0.00 | 0.00 | 0.00 | 56 | 1016.6 |
| 20260902191504 | 94 | 283 | 5.2 | 8.7 | 0.00 | 0.00 | 0.00 | 57 | 1016.6 |
| 20260902191006 | 93 | 283 | 3.5 | 7.8 | 0.00 | 0.00 | 0.00 | 57 | 1016.6 |
| 20260902190503 | 93 | 280 | 2.6 | 7.0 | 0.00 | 0.00 | 0.00 | 58 | 1016.7 |
| 20260902190003 | 93 | 269 | 4.3 | 10.4 | 0.00 | 0.00 | 0.00 | 56 | 1016.9 |
| 20260902185503 | 94 | 267 | 4.3 | 11.3 | 0.00 | 0.00 | 0.00 | 55 | 1016.9 |
| 20260902185002 | 94 | 259 | 7.8 | 11.3 | 0.00 | 0.00 | 0.00 | 55 | 1016.9 |
| 20260902184503 | 94 | 238 | 7.0 | 9.6 | 0.00 | 0.00 | 0.00 | 58 | 1016.8 |
| 20260902184002 | 93 | 250 | 2.6 | 8.7 | 0.00 | 0.00 | 0.00 | 58 | 1016.9 |
| 20260902183503 | 94 | 246 | 4.3 | 10.4 | 0.00 | 0.00 | 0.00 | 56 | 1016.9 |
| 20260902183002 | 94 | 257 | 5.2 | 11.3 | 0.00 | 0.00 | 0.00 | 57 | 1017.0 |
| 20260902182502 | 94 | 262 | 4.3 | 8.7 | 0.00 | 0.00 | 0.00 | 59 | 1016.9 |
| 20260902182100 | 94 | 277 | 4.3 | 13.0 | 0.00 | 0.00 | 0.00 | 57 | 1017.0 |
| 20260902181600 | 94 | 240 | 3.5 | 13.0 | 0.00 | 0.00 | 0.00 | 59 | 1017.0 |
| 20260902181059 | 93 | 279 | 3.5 | 12.2 | 0.00 | 0.00 | 0.00 | 57 | 1017.0 |
| 20260902180558 | 94 | 296 | 7.0 | 12.2 | 0.00 | 0.00 | 0.00 | 56 | 1017.0 |
| 20260902180059 | 94 | 205 | 4.3 | 13.0 | 0.00 | 0.00 | 0.00 | 60 | 1017.0 |
| 20260902175558 | 94 | 230 | 6.1 | 13.0 | 0.00 | 0.00 | 0.00 | 58 | 1017.2 |
| 20260902175057 | 93 | 267 | 6.1 | 12.2 | 0.00 | 0.00 | 0.00 | 57 | 1017.1 |
| 20260902174556 | 93 | 244 | 7.0 | 11.3 | 0.00 | 0.00 | 0.00 | 59 | 1017.1 |
| 20260902174057 | 93 | 234 | 6.1 | 11.3 | 0.00 | 0.00 | 0.00 | 60 | 1017.3 |
| 20260902173556 | 93 | 247 | 5.2 | 11.3 | 0.00 | 0.00 | 0.00 | 60 | 1017.2 |
| 20260902173055 | 92 | 209 | 6.1 | 8.7 | 0.00 | 0.00 | 0.00 | 59 | 1017.2 |
| 20260902172554 | 92 | 250 | 7.8 | 10.4 | 0.00 | 0.00 | 0.00 | 60 | 1017.2 |
| 20260902172055 | 92 | 281 | 4.3 | 9.6 | 0.00 | 0.00 | 0.00 | 59 | 1017.4 |
| 20260902171557 | 93 | 252 | 5.2 | 10.4 | 0.00 | 0.00 | 0.00 | 59 | 1017.5 |
| 20260902171057 | 92 | 262 | 6.1 | 9.6 | 0.00 | 0.00 | 0.00 | 63 | 1017.5 |
| 20260902170552 | 92 | 282 | 2.6 | 7.8 | 0.00 | 0.00 | 0.00 | 62 | 1017.5 |
| 20260902170052 | 92 | 284 | 3.5 | 9.6 | 0.00 | 0.00 | 0.00 | 59 | 1017.5 |
| 20260902165552 | 93 | 268 | 6.1 | 11.3 | 0.00 | 0.00 | 0.00 | 58 | 1017.7 |
| 20260902165052 | 93 | 215 | 7.0 | 11.3 | 0.00 | 0.00 | 0.00 | 58 | 1017.7 |
| 20260902164553 | 93 | 273 | 5.2 | 9.6 | 0.00 | 0.00 | 0.00 | 60 | 1017.7 |
| 20260902164049 | 93 | 317 | 2.6 | 9.6 | 0.00 | 0.00 | 0.00 | 61 | 1017.8 |
| 20260902163548 | 92 | 261 | 6.1 | 12.2 | 0.00 | 0.00 | 0.00 | 60 | 1018.0 |
| 20260902163047 | 92 | 248 | 8.7 | 12.2 | 0.00 | 0.00 | 0.00 | 61 | 1018.1 |
| 20260902162545 | 92 | 337 | 2.6 | 10.4 | 0.00 | 0.00 | 0.00 | 61 | 1018.1 |
| 20260902162044 | 92 | 243 | 5.2 | 10.4 | 0.00 | 0.00 | 0.00 | 60 | 1018.1 |
| 20260902161543 | 91 | 215 | 4.3 | 11.3 | 0.00 | 0.00 | 0.00 | 61 | 1018.2 |
| 20260902161041 | 91 | 271 | 6.1 | 8.7 | 0.00 | 0.00 | 0.00 | 61 | 1018.2 |
| 20260902160540 | 91 | 333 | 3.5 | 7.8 | 0.00 | 0.00 | 0.00 | 61 | 1018.2 |
| 20260902160040 | 91 | 274 | 2.6 | 6.1 | 0.00 | 0.00 | 0.00 | 64 | 1018.2 |
| 20260902155538 | 90 | 269 | 2.6 | 7.8 | 0.00 | 0.00 | 0.00 | 64 | 1018.2 |
| 20260902155039 | 90 | 331 | 3.5 | 7.8 | 0.00 | 0.00 | 0.00 | 64 | 1018.3 |
| 20260902154535 | 90 | 339 | 2.6 | 7.0 | 0.00 | 0.00 | 0.00 | 65 | 1018.3 |
| 20260902154035 | 90 | 223 | 3.5 | 7.0 | 0.00 | 0.00 | 0.00 | 64 | 1018.3 |
| 20260902153533 | 90 | 246 | 2.6 | 6.1 | 0.00 | 0.00 | 0.00 | 64 | 1018.2 |
| 20260902153032 | 89 | 267 | 2.6 | 5.2 | 0.00 | 0.00 | 0.00 | 67 | 1018.1 |
| 20260902152529 | 89 | 148 | 1.7 | 7.0 | 0.00 | 0.00 | 0.00 | 67 | 1018.3 |
| 20260902152129 | 89 | 264 | 2.6 | 7.0 | 0.00 | 0.00 | 0.00 | 67 | 1018.3 |
| 20260902151531 | 88 | 259 | 3.5 | 7.0 | 0.00 | 0.00 | 0.00 | 69 | 1018.3 |
| 20260902151026 | 88 | 283 | 1.7 | 7.0 | 0.00 | 0.00 | 0.00 | 71 | 1018.4 |
| 20260902150524 | 87 | 297 | 0.9 | 7.0 | 0.00 | 0.00 | 0.00 | 71 | 1018.5 |
| 20260902150023 | 87 | 271 | 2.6 | 7.0 | 0.00 | 0.00 | 0.00 | 71 | 1018.5 |
| 20260902145522 | 87 | 319 | 3.5 | 7.0 | 0.00 | 0.00 | 0.00 | 72 | 1018.5 |
| 20260902145021 | 86 | 267 | 0.9 | 5.2 | 0.00 | 0.00 | 0.00 | 73 | 1018.4 |
| 20260902144520 | 86 | 209 | 3.5 | 5.2 | 0.00 | 0.00 | 0.00 | 73 | 1018.4 |
| 20260902144017 | 85 | 267 | 3.5 | 6.1 | 0.00 | 0.00 | 0.00 | 74 | 1018.4 |
| 20260902143519 | 85 | 266 | 2.6 | 5.2 | 0.00 | 0.00 | 0.00 | 76 | 1018.4 |
| 20260902143014 | 85 | 274 | 2.6 | 5.2 | 0.00 | 0.00 | 0.00 | 77 | 1018.4 |
| 20260902142516 | 84 | 279 | 1.7 | 6.1 | 0.00 | 0.00 | 0.00 | 78 | 1018.4 |
| 20260902142011 | 84 | 273 | 2.6 | 6.1 | 0.00 | 0.00 | 0.00 | 79 | 1018.4 |
| 20260902141510 | 83 | 294 | 1.7 | 7.8 | 0.00 | 0.00 | 0.00 | 78 | 1018.4 |
| 20260902141009 | 83 | 277 | 3.5 | 7.8 | 0.00 | 0.00 | 0.00 | 79 | 1018.4 |
| 20260902140507 | 82 | 275 | 2.6 | 7.0 | 0.00 | 0.00 | 0.00 | 80 | 1018.3 |
| 20260902140011 | 82 | 271 | 2.6 | 7.0 | 0.00 | 0.00 | 0.00 | 80 | 1018.3 |
| 20260902135504 | 82 | 263 | 1.7 | 7.0 | 0.00 | 0.00 | 0.00 | 81 | 1018.3 |
| 20260902135007 | 81 | 264 | 4.3 | 7.0 | 0.00 | 0.00 | 0.00 | 81 | 1018.3 |
| 20260902134501 | 81 | 230 | 2.6 | 4.3 | 0.00 | 0.00 | 0.00 | 84 | 1018.3 |
| 20260902134059 | 80 | 249 | 2.6 | 4.3 | 0.00 | 0.00 | 0.00 | 84 | 1018.4 |
| 20260902133558 | 80 | 253 | 1.7 | 3.5 | 0.00 | 0.00 | 0.00 | 85 | 1018.4 |
| 20260902133103 | 79 | 241 | 0.9 | 3.5 | 0.00 | 0.00 | 0.00 | 86 | 1018.4 |
| 20260902132555 | 79 | 248 | 0.9 | 5.2 | 0.00 | 0.00 | 0.00 | 87 | 1018.4 |
| 20260902132053 | 78 | 235 | 1.7 | 4.3 | 0.00 | 0.00 | 0.00 | 87 | 1018.4 |
| 20260902131601 | 78 | 221 | 1.7 | 4.3 | 0.00 | 0.00 | 0.00 | 87 | 1018.4 |
| 20260902131053 | 77 | 239 | 1.7 | 6.1 | 0.00 | 0.00 | 0.00 | 87 | 1018.4 |
| 20260902130550 | 77 | 215 | 2.6 | 5.2 | 0.00 | 0.00 | 0.00 | 87 | 1018.4 |
| 20260902130049 | 77 | 209 | 2.6 | 6.1 | 0.00 | 0.00 | 0.00 | 88 | 1018.4 |
| 20260902125549 | 76 | 216 | 3.5 | 6.1 | 0.00 | 0.00 | 0.00 | 88 | 1018.3 |
| 20260902125045 | 76 | 204 | 2.6 | 5.2 | 0.00 | 0.00 | 0.00 | 88 | 1018.3 |
| 20260902124544 | 76 | 244 | 1.7 | 6.1 | 0.00 | 0.00 | 0.00 | 89 | 1018.3 |
| 20260902124042 | 76 | 225 | 3.5 | 6.1 | 0.00 | 0.00 | 0.00 | 89 | 1018.3 |
| 20260902123541 | 75 | 250 | 0.9 | 6.1 | 0.00 | 0.00 | 0.00 | 89 | 1018.3 |
| 20260902123040 | 75 | 225 | 0.9 | 6.1 | 0.00 | 0.00 | 0.00 | 90 | 1018.2 |
| 20260902122538 | 75 | 202 | 3.5 | 6.1 | 0.00 | 0.00 | 0.00 | 90 | 1018.2 |
| 20260902122036 | 75 | 250 | 2.6 | 5.2 | 0.00 | 0.00 | 0.00 | 91 | 1018.3 |
| 20260902121535 | 74 | 257 | 1.7 | 3.5 | 0.00 | 0.00 | 0.00 | 91 | 1018.3 |
| 20260902121034 | 74 | 237 | 1.7 | 4.3 | 0.00 | 0.00 | 0.00 | 91 | 1018.1 |
| 20260902120532 | 74 | 238 | 0.9 | 4.3 | 0.00 | 0.00 | 0.00 | 91 | 1018.1 |
| 20260902120031 | 74 | 200 | 1.7 | 6.1 | 0.00 | 0.00 | 0.00 | 91 | 1018.1 |
| 20260902115532 | 74 | 208 | 3.5 | 6.1 | 0.00 | 0.00 | 0.00 | 91 | 1018.0 |
| 20260902115029 | 74 | 212 | 2.6 | 3.5 | 0.00 | 0.00 | 0.00 | 91 | 1017.8 |
| 20260902114537 | 73 | 204 | 1.7 | 3.5 | 0.00 | 0.00 | 0.00 | 91 | 1017.8 |
| 20260902114030 | 73 | 215 | 1.7 | 3.5 | 0.00 | 0.00 | 0.00 | 91 | 1017.8 |
| 20260902113628 | 73 | 216 | 0.9 | 3.5 | 0.00 | 0.00 | 0.00 | 92 | 1017.7 |
| 20260902113025 | 73 | 217 | 1.7 | 3.5 | 0.00 | 0.00 | 0.00 | 92 | 1017.7 |
| 20260902112525 | 73 | 210 | 0.9 | 3.5 | 0.00 | 0.00 | 0.00 | 92 | 1017.6 |
| 20260902112024 | 73 | 209 | 0.9 | 3.5 | 0.00 | 0.00 | 0.00 | 92 | 1017.6 |
| 20260902111525 | 73 | 209 | 0.9 | 3.5 | 0.00 | 0.00 | 0.00 | 92 | 1017.6 |
| 20260902111022 | 73 | 219 | 0.9 | 2.6 | 0.00 | 0.00 | 0.00 | 91 | 1017.5 |
| 20260902110522 | 73 | 219 | 0.9 | 3.5 | 0.00 | 0.00 | 0.00 | 91 | 1017.5 |
| 20260902110030 | 73 | 219 | 0.9 | 3.5 | 0.00 | 0.00 | 0.00 | 91 | 1017.6 |
| 20260902105521 | 73 | 214 | 0.0 | 2.6 | 0.00 | 0.00 | 0.00 | 91 | 1017.5 |
| 20260902105021 | 73 | 214 | 0.9 | 2.6 | 0.00 | 0.00 | 0.00 | 91 | 1017.4 |
| 20260902104541 | 73 | 214 | 0.0 | 0.0 | 0.00 | 0.00 | 0.00 | 91 | 1017.5 |
| 20260902104022 | 73 | 214 | 0.0 | 0.0 | 0.00 | 0.00 | 0.00 | 91 | 1017.5 |
| 20260902103519 | 73 | 214 | 0.0 | 0.0 | 0.00 | 0.00 | 0.00 | 90 | 1017.4 |
| 20260902103019 | 73 | 214 | 0.0 | 0.0 | 0.00 | 0.00 | 0.00 | 90 | 1017.3 |
| 20260902102518 | 73 | 214 | 0.0 | 0.0 | 0.00 | 0.00 | 0.00 | 90 | 1017.4 |
| 20260902102018 | 73 | 214 | 0.0 | 0.0 | 0.00 | 0.00 | 0.00 | 90 | 1017.3 |
| 20260902101517 | 74 | 214 | 0.0 | 0.9 | 0.00 | 0.00 | 0.00 | 90 | 1017.3 |
| 20260902101018 | 74 | 214 | 0.0 | 1.7 | 0.00 | 0.00 | 0.00 | 89 | 1017.4 |
| 20260902100516 | 74 | 214 | 0.0 | 1.7 | 0.00 | 0.00 | 0.00 | 89 | 1017.3 |
| 20260902100015 | 74 | 214 | 0.0 | 1.7 | 0.00 | 0.00 | 0.00 | 89 | 1017.4 |
| 20260902095515 | 74 | 214 | 0.0 | 1.7 | 0.00 | 0.00 | 0.00 | 89 | 1017.3 |
| 20260902095016 | 74 | 214 | 0.0 | 1.7 | 0.00 | 0.00 | 0.00 | 89 | 1017.4 |
| 20260902094515 | 74 | 214 | 0.0 | 1.7 | 0.00 | 0.00 | 0.00 | 89 | 1017.3 |
| 20260902094015 | 74 | 214 | 0.0 | 2.6 | 0.00 | 0.00 | 0.00 | 89 | 1017.3 |
| 20260902093632 | 74 | 214 | 0.0 | 2.6 | 0.00 | 0.00 | 0.00 | 89 | 1017.3 |
| 20260902093014 | 74 | 213 | 0.9 | 2.6 | 0.00 | 0.00 | 0.00 | 89 | 1017.2 |
| 20260902092513 | 74 | 214 | 0.9 | 3.5 | 0.00 | 0.00 | 0.00 | 88 | 1017.2 |
| 20260902092013 | 75 | 214 | 0.9 | 3.5 | 0.00 | 0.00 | 0.00 | 88 | 1017.3 |
| 20260902091516 | 75 | 214 | 1.7 | 4.3 | 0.00 | 0.00 | 0.00 | 88 | 1017.3 |
| 20260902091012 | 75 | 213 | 0.9 | 6.1 | 0.00 | 0.00 | 0.00 | 89 | 1017.4 |
| 20260902090512 | 75 | 212 | 2.6 | 7.0 | 0.00 | 0.00 | 0.00 | 89 | 1017.3 |
| 20260902090011 | 74 | 209 | 3.5 | 7.0 | 0.00 | 0.00 | 0.00 | 89 | 1017.3 |
| 20260902085510 | 74 | 226 | 0.9 | 3.5 | 0.00 | 0.00 | 0.00 | 89 | 1017.2 |
| 20260902085011 | 74 | 226 | 0.0 | 1.7 | 0.00 | 0.00 | 0.00 | 89 | 1017.1 |
| 20260902084510 | 74 | 226 | 0.9 | 4.3 | 0.00 | 0.00 | 0.00 | 88 | 1017.0 |
| 20260902084016 | 75 | 226 | 1.7 | 4.3 | 0.00 | 0.00 | 0.00 | 88 | 1016.9 |
| 20260902083510 | 75 | 225 | 0.9 | 2.6 | 0.00 | 0.00 | 0.00 | 88 | 1016.9 |
| 20260902083008 | 75 | 225 | 1.7 | 2.6 | 0.00 | 0.00 | 0.00 | 88 | 1016.8 |
| 20260902082508 | 75 | 226 | 1.7 | 2.6 | 0.00 | 0.00 | 0.00 | 88 | 1016.8 |
| 20260902082009 | 75 | 227 | 0.0 | 2.6 | 0.00 | 0.00 | 0.00 | 88 | 1016.8 |
| 20260902081506 | 75 | 227 | 0.0 | 1.7 | 0.00 | 0.00 | 0.00 | 87 | 1016.7 |
| 20260902081006 | 75 | 227 | 0.0 | 1.7 | 0.00 | 0.00 | 0.00 | 87 | 1016.7 |
| 20260902080506 | 75 | 227 | 0.0 | 2.6 | 0.00 | 0.00 | 0.00 | 87 | 1016.7 |
| 20260902080014 | 75 | 227 | 0.0 | 2.6 | 0.00 | 0.00 | 0.00 | 87 | 1016.7 |
| 20260902075506 | 75 | 227 | 0.9 | 2.6 | 0.00 | 0.00 | 0.00 | 87 | 1016.6 |
| 20260902075004 | 75 | 226 | 0.0 | 3.5 | 0.00 | 0.00 | 0.00 | 87 | 1016.6 |
| 20260902074506 | 75 | 226 | 0.9 | 3.5 | 0.00 | 0.00 | 0.00 | 87 | 1016.6 |
| 20260902074003 | 75 | 229 | 0.9 | 3.5 | 0.00 | 0.00 | 0.00 | 87 | 1016.5 |
| 20260902073502 | 76 | 231 | 0.9 | 4.3 | 0.00 | 0.00 | 0.00 | 87 | 1016.4 |
| 20260902073002 | 76 | 233 | 0.9 | 4.3 | 0.00 | 0.00 | 0.00 | 86 | 1016.4 |
| 20260902072501 | 76 | 244 | 0.9 | 3.5 | 0.00 | 0.00 | 0.00 | 87 | 1016.4 |
| 20260902072002 | 76 | 244 | 0.9 | 3.5 | 0.00 | 0.00 | 0.00 | 86 | 1016.4 |
| 20260902071501 | 76 | 257 | 1.7 | 3.5 | 0.00 | 0.00 | 0.00 | 86 | 1016.3 |
| 20260902071001 | 76 | 237 | 1.7 | 4.3 | 0.00 | 0.00 | 0.00 | 86 | 1016.3 |
| 20260902070600 | 76 | 238 | 1.7 | 4.3 | 0.00 | 0.00 | 0.00 | 86 | 1016.3 |
| 20260902070100 | 76 | 234 | 1.7 | 4.3 | 0.00 | 0.00 | 0.00 | 86 | 1016.2 |
| 20260902065600 | 76 | 215 | 1.7 | 4.3 | 0.00 | 0.00 | 0.00 | 86 | 1016.2 |
| 20260902065100 | 76 | 249 | 1.7 | 4.3 | 0.00 | 0.00 | 0.00 | 86 | 1016.3 |
| 20260902064605 | 76 | 248 | 1.7 | 3.5 | 0.00 | 0.00 | 0.00 | 86 | 1016.3 |
| 20260902064059 | 76 | 233 | 1.7 | 4.3 | 0.00 | 0.00 | 0.00 | 86 | 1016.3 |
| 20260902063600 | 76 | 217 | 2.6 | 5.2 | 0.00 | 0.00 | 0.00 | 86 | 1016.3 |
| 20260902063127 | 76 | 217 | 2.6 | 5.2 | 0.00 | 0.00 | 0.00 | 86 | 1016.3 |
| 20260902062557 | 76 | 211 | 2.6 | 5.2 | 0.00 | 0.00 | 0.00 | 86 | 1016.3 |
| 20260902062056 | 77 | 219 | 2.6 | 4.3 | 0.00 | 0.00 | 0.00 | 86 | 1016.4 |
| 20260902061557 | 77 | 220 | 1.7 | 3.5 | 0.00 | 0.00 | 0.00 | 86 | 1016.4 |
| 20260902061055 | 77 | 238 | 1.7 | 3.5 | 0.00 | 0.00 | 0.00 | 86 | 1016.5 |
| 20260902060555 | 77 | 244 | 0.9 | 4.3 | 0.00 | 0.00 | 0.00 | 86 | 1016.5 |